Regional Weather Roundup
Issued by NWS

Home | Current Version | Previous Version | Text Only | Print | Product List | Glossary Off
Versions: 1 2 3 4 5 6 7 8 9 10 11 12 13 14 15 16 17 18 19 20 21 22 23 24 25 26 27 28 29 30 31 32 33 34 35 36 37 38 39 40 41 42 43 44 45 46 47 48 49 50

000
ASUS43 KIND 260909
RWRIN

WEATHER ROUNDUP FOR INDIANA
NATIONAL WEATHER SERVICE INDIANAPOLIS IN
500 AM EDT TUE JUL 26 2016

NOTE: "FAIR" INDICATES FEW OR NO CLOUDS BELOW 12,000 FEET WITH NO
SIGNIFICANT WEATHER AND/OR OBSTRUCTIONS TO VISIBILITY.

* - STATION DOES NOT REPORT WEATHER SUCH AS PRECIPITATION OR FOG.

+ - STATION NOT QUALITY CONTROLLED BY THE NATIONAL WEATHER SERVICE.
    USE DATA WITH CAUTION...ESPECIALLY DEWPOINT AND RELATIVE
    HUMIDITY OBSERVATIONS.

INZ001>003-010>013-019-020-261000-
NORTHWEST INDIANA

CITY           SKY/WX    TMP DP  RH WIND       PRES   REMARKS
GARY /AIRPORT/ PTCLDY    67  67 100 CALM      30.04S
KNOX *+        CLOUDY    63  61  94 CALM      30.03S
LA PORTE +     PTCLDY   N/A N/A N/A CALM      30.06R
MICHIGAN CITY+ PTCLDY    63  63 100 CALM      30.05R
MONTICELLO +   PTCLDY    65  61  85 CALM      30.03R
RENSSELAER +   PTCLDY    64  64 100 CALM      30.05R
VALPARAISO     PTCLDY    66  64  93 CALM      30.05R

$$

LMZ046-743>745-261000-
SOUTHERN LAKE MICHIGAN

STATION/POSITION TIME  TEMP    WIND        PRES    WAVE
                       AIR SEA DIR/SP/G            HT
                 (UTC) (F)     (DEG/KT/KT) (MB)    (FT)
BURNS HARBOR     0801   74      CALM  /  4 1017.3S
MICHIGAN CITY    0800   71     130/  4/  5   N/A
5NW MICH CITY    0900   74 74  200/  2/  2   N/A     1

$$

INZ004-005-014>016-021>024-261000-
NORTH CENTRAL INDIANA

CITY           SKY/WX    TMP DP  RH WIND       PRES   REMARKS
GOSHEN         CLOUDY    63  60  90 CALM      30.05R
LOGANSPORT +   CLEAR     63  61  94 CALM      30.05R
PERU/GRISSOM   CLEAR     64  64  99 CALM      30.03R
ROCHESTER +    PTCLDY    64  64 100 CALM      30.05R
SOUTH BEND     PTCLDY    64  62  93 CALM      30.05R
WARSAW +       CLOUDY    61  61 100 CALM      30.05R

$$

INZ006>009-017-018-025>027-261000-
NORTHEAST INDIANA

CITY           SKY/WX    TMP DP  RH WIND       PRES   REMARKS
ANGOLA *+      CLEAR     61  61 100 CALM      30.04S
AUBURN +       PTCLDY    64  59  82 CALM      30.05R
FORT WAYNE     PTCLDY    63  61  93 CALM      30.04R
HUNTINGTON +   CLEAR     63  61  96 CALM      30.04R

$$

INZ028-029-035-036-043>045-051>053-261000-
WEST CENTRAL INDIANA

CITY           SKY/WX    TMP DP  RH WIND       PRES   REMARKS
CRAWFORDSVL +  MOCLDY    67  67 100 CALM      30.03R
GREENCASTLE +  CLOUDY    70  70 100 CALM      30.03R
LAFAYETTE      CLOUDY    69  68  96 CALM      30.03R
TERRE HAUTE    CLOUDY    74  70  87 NE3       30.01R

$$

INZ030>032-037>040-046>048-054>057-064-065-261000-
CENTRAL INDIANA

CITY           SKY/WX    TMP DP  RH WIND       PRES   REMARKS
INDIANAPOLIS   CLOUDY    75  67  76 NE9       30.02S
-EAGLE CREEK   CLOUDY    75  65  70 NE3       30.02R
KOKOMO *+      CLEAR     63  57  82 CALM      30.04S
MARION +       PTCLDY    60  60 100 CALM      30.05R FOG
MT COMFORT *+  PTCLDY    68  66  94 CALM      30.04R
SHELBYVILLE    MOCLDY    74  69  85 N3        30.01S
ZIONSVILLE +   CLOUDY    67  65  92 NE5       30.05R

$$

INZ033-034-041-042-049-050-058-059-261000-
EAST CENTRAL INDIANA

CITY           SKY/WX    TMP DP  RH WIND       PRES   REMARKS
MUNCIE         CLOUDY    67  64  90 CALM      30.04R

$$

INZ060-061-067>069-081>083-085>088-261000-
SOUTHWEST INDIANA

CITY           SKY/WX    TMP DP  RH WIND       PRES   REMARKS
EVANSVILLE     CLEAR     73  71  93 CALM      30.00R
HUNTINGBURG *+ CLOUDY    75  72  88 CALM      30.01R
WASHINGTON +   PTCLDY    73  73 100 MISG      29.99R FOG

$$

INZ062-063-066-070>080-084-089>092-261000-
SOUTH CENTRAL AND SOUTHEAST INDIANA

CITY           SKY/WX    TMP DP  RH WIND       PRES   REMARKS
BLOOMINGTON    PTCLDY    74  71  91 CALM      30.01S
MADISON *+     CLOUDY    73  72  94 CALM      30.03S

$$





USA.gov is the U.S. government's official web portal to all federal, state and local government web resources and services.